Ketchikan, AK

9:34 AM AKDT on October 19, 2018 (GMT -0800)
Ketchikan International

Weather History for PAKT - April, 2018

Change the Weather History Date:

Sunday, April 22, 2018

  Actual Average Record
Temperature  
Mean Temperature 44 °F -  
Max Temperature 46 °F 49 °F 73 °F (1956)
Min Temperature 42 °F 35 °F 27 °F (1976)
Degree Days  
Heating Degree Days 21    
Moisture  
Dew Point 40 °F    
Average Humidity 87    
Maximum Humidity 93    
Minimum Humidity 73    
Precipitation  
Precipitation 0.36 in - - ()
Sea Level Pressure  
Sea Level Pressure 30.32 in    
Wind  
Wind Speed 9 mph (SSE)    
Max Wind Speed 21 mph    
Max Gust Speed 31 mph    
Visibility 8 miles    
Events Rain    
Averages and records for this station are not official NWS values.
T = Trace of Precipitation, MM = Missing Value Source: NWS Daily Summary

Daily Weather History Graph

Daily Weather History Graph

Search for Another Location

Airport or City:

Astronomy

Apr. 22, 2018 Rise Set
Actual Time 5:25 AM AKDT 8:06 PM AKDT
Civil Twilight 4:44 AM AKDT 8:47 PM AKDT
Nautical Twilight 3:51 AM AKDT 9:41 PM AKDT
Astronomical Twilight 2:43 AM AKDT 10:51 PM AKDT
Moon 10:57 AM AKDT (4/22) 2:39 AM AKDT (4/22)
Length of Visible Light 16h 03m
Length of Day
14h 41m
Waxing Crescent, 49% of the Moon is Illuminated
Apr 22
Waxing Crescent
Apr 22
First Quarter
Apr 29
Full
May 7
Last Quarter
May 15
New

Hourly Weather History & Observations

Time (AKDT) Temp. Windchill Dew Point Humidity Pressure Visibility Wind Dir Wind Speed Gust Speed Precip Events Conditions
12:38 AM 42.1 °F 40.2 °F 39.0 °F 89% 30.33 in 10.0 mi South 3.5 mph - N/A   Overcast
12:53 AM 43.0 °F 39.5 °F 39.9 °F 89% 30.34 in 6.0 mi SSE 5.8 mph - 0.01 in Rain Light Rain
1:13 AM 42.1 °F 39.2 °F 39.9 °F 92% 30.34 in 10.0 mi South 4.6 mph - 0.01 in   Overcast
1:48 AM 42.8 °F 39.3 °F 39.2 °F 87% 30.34 in 10.0 mi South 5.8 mph - 0.01 in   Overcast
1:53 AM 42.1 °F 39.2 °F 39.9 °F 92% 30.34 in 10.0 mi SSE 4.6 mph - 0.01 in   Overcast
2:05 AM 42.1 °F 39.2 °F 39.9 °F 92% 30.34 in 10.0 mi South 4.6 mph - N/A   Overcast
2:21 AM 43.0 °F 39.5 °F 39.9 °F 89% 30.34 in 10.0 mi South 5.8 mph - N/A   Overcast
2:40 AM 43.0 °F 39.5 °F 39.9 °F 89% 30.34 in 10.0 mi SSE 5.8 mph - N/A   Overcast
2:53 AM 43.0 °F 38.8 °F 41.0 °F 93% 30.35 in 10.0 mi South 6.9 mph - 0.00 in Rain Light Rain
3:53 AM 43.0 °F 35.7 °F 39.9 °F 89% 30.35 in 4.0 mi SE 15.0 mph - 0.04 in Rain Light Rain
4:07 AM 42.1 °F 37.7 °F 39.9 °F 92% 30.35 in 3.0 mi SE 6.9 mph - 0.03 in Rain Light Rain
4:53 AM 42.1 °F 37.7 °F 39.9 °F 92% 30.35 in 10.0 mi SSE 6.9 mph - 0.06 in Rain Light Rain
5:21 AM 43.0 °F 37.7 °F 39.9 °F 89% 30.34 in 10.0 mi SSE 9.2 mph - 0.01 in Rain Light Rain
5:48 AM 42.8 °F 36.2 °F 39.2 °F 87% 30.34 in 4.0 mi SE 12.7 mph - 0.03 in Rain Light Rain
5:53 AM 43.0 °F 35.7 °F 39.9 °F 89% 30.34 in 4.0 mi SE 15.0 mph - 0.04 in Rain Light Rain
6:01 AM 42.8 °F 36.2 °F 39.2 °F 87% 30.33 in 3.0 mi SE 12.7 mph - N/A Rain Light Rain
6:53 AM 42.8 °F 36.6 °F 39.2 °F 87% 30.34 in 5.0 mi SE 11.5 mph - N/A Rain Light Rain
7:53 AM 43.0 °F 36.4 °F 41.0 °F 93% 30.34 in 8.0 mi SE 12.7 mph - 0.05 in Rain Light Rain
8:53 AM 44.1 °F 36.5 °F 39.9 °F 85% 30.34 in 6.0 mi SE 17.3 mph 23.0 mph 0.04 in Rain Light Rain
9:53 AM 44.1 °F 37.4 °F 39.9 °F 85% 30.34 in 6.0 mi SE 13.8 mph 20.7 mph 0.04 in Rain Light Rain
10:53 AM 44.1 °F 36.2 °F 39.9 °F 85% 30.35 in 6.0 mi SE 18.4 mph 24.2 mph 0.02 in Rain Light Rain
11:53 AM 44.1 °F 37.7 °F 39.9 °F 85% 30.34 in 6.0 mi SE 12.7 mph 20.7 mph 0.02 in Rain Light Rain
12:53 PM 45.0 °F 38.2 °F 39.9 °F 82% 30.34 in 10.0 mi SSE 15.0 mph 21.9 mph 0.02 in Rain Light Rain
1:53 PM 44.6 °F 40.2 °F 41.0 °F 87% 30.34 in 4.0 mi SSE 8.1 mph 23.0 mph N/A Rain Light Rain
2:53 PM 44.6 °F 38.4 °F 42.8 °F 93% 30.35 in 10.0 mi SSE 12.7 mph - N/A Rain Light Rain
3:53 PM 44.6 °F 37.8 °F 42.8 °F 93% 30.33 in 5.0 mi SE 15.0 mph - N/A Rain Light Rain
4:53 PM 44.6 °F 37.2 °F 41.0 °F 87% 30.31 in 3.0 mi SE 17.3 mph 26.5 mph N/A Rain Light Rain
5:53 PM 44.6 °F 36.9 °F 39.2 °F 81% 30.29 in 8.0 mi SE 18.4 mph 29.9 mph N/A Rain Light Rain
6:53 PM 44.6 °F 37.2 °F 41.0 °F 87% 30.27 in 7.0 mi SE 17.3 mph 27.6 mph N/A Rain Light Rain
7:53 PM 45.0 °F 37.6 °F 39.9 °F 82% 30.26 in 10.0 mi SE 17.3 mph 24.2 mph 0.01 in   Overcast
8:53 PM 45.0 °F 38.5 °F 39.0 °F 80% 30.25 in 10.0 mi SSE 13.8 mph 23.0 mph N/A   Overcast
9:15 PM 46.0 °F 39.6 °F 39.0 °F 76% 30.24 in 10.0 mi SSE 15.0 mph 31.1 mph N/A   Overcast
9:53 PM 46.0 °F 38.3 °F 37.9 °F 73% 30.25 in 10.0 mi SE 20.7 mph 29.9 mph 0.00 in   Overcast
10:53 PM 45.0 °F 38.2 °F 39.0 °F 80% 30.25 in 9.0 mi SE 15.0 mph - 0.00 in Rain Light Rain
11:53 PM 46.0 °F 40.2 °F 37.9 °F 73% 30.23 in 10.0 mi SSE 12.7 mph - 0.00 in   Overcast